Weather in Agadir

Morocco     30°23′30″N   9°33′24″W
temp.,
°C
wind,
m/s
gust,
m/s
humid.,
%
clouds,
%
prec.,
mm/h
press.,
hPa
HPBL,
m
12 may, wed
wed1200:00+14wnw11760 0.0 101858
03:00+15w22620 0.0 101650
06:00+13w11732 0.0 101738
09:00+21s21470 0.0 1017364
12:00+27wsw53345 0.0 1016627
15:00+29sw44275 0.0 1014591
18:00+27s3228100 0.0 1014277
21:00+19ese335499 0.0 101669
13 may, thu
thu1300:00+17se116294 0.0 101643
03:00+17wnw225729 0.0 101444
06:00+15wnw226331 0.0 101449
09:00+21sw2149100 0.0 1014302
12:00+27wsw4337100 0.0 1013511
15:00+29sw4329100 0.0 1011564
18:00+27sse333366 0.0 1010339
21:00+19se22541 0.0 101254
14 may, fri
fri1400:00+17ssw116544 0.0 101145
03:00+17wnw225851 0.0 100947
06:00+16sse11650 0.0 100934
09:00+23ssw21470 0.0 1010300
12:00+29sw42330 0.0 1008492
15:00+31wsw422878 0.0 1005576
18:00+28ssw322897 0.0 1006315
21:00+22ene12413 0.0 100842
15 may, sat
sat1500:00+20sw01530 0.0 100839
03:00+20wsw0149100 0.0 100744
06:00+17w23665 0.0 100864
09:00+22wsw21533 0.0 1010228
12:00+28wsw433422 0.0 1009411
15:00+33wsw642224 0.0 1007866
18:00+30wnw352498 0.0 1007187
21:00+23s224247 0.0 100935
16 may, sun
sun1600:00+19ssw226365 0.0 101056
04:00+15ssw229221 0.0 101060
07:00+16sw11883 0.0 101149
10:00+23wsw22510 0.0 1012435
13:00+30wsw55350 0.0 1011764
16:00+32wsw65261 0.0 10091490
19:00+33nne39230 0.0 10081272
22:00+22ene23530 0.0 101246